Flag for Germany Weather past 2 weeks in Fürth, Bavaria, Germany

Now
73 °F

Sunny.


Feels Like: 76 °F
Forecast: 61 / 86 °F
Wind: 13 mph from West

Location: Nuernberg

Current Time: Aug 4, 2015 at 6:48:45 PM

Latest Report: Aug 4, 2015 at 6:20 PM


Visibility: 10 mi

Pressure: 30.01 "Hg

Humidity: 61%

Dew point: 59 °F

Location of FürthLocation

Historic Weather in Fürth — Graph

°F

Fürth temperature yesterday

Maximum temperature yesterday: 88 °F (at 5:50 PM)
Minimum temperature yesterday: 57 °F (at 5:50 AM)
Average temperature yesterday: 73 °F

Past Weeks' High & Low Weather Summary

 TemperatureHumidityPressure
High97 °F (Jul 22, 3:50 PM)100% (Jul 23, 1:50 AM)30.12 "Hg (Jul 23, 1:50 AM)
Low43 °F (Jul 31, 5:50 AM)22% (Jul 22, 4:20 PM)29.68 "Hg (Jul 25, 12:50 AM)
Average68 °F60%29.94 "Hg
* Reported Jul 20 5:20 PM — Aug 4 5:20 PM, Fürth, Weather by CustomWeather, © 2015

Note: Actual official high and low records may vary slightly from our data, if they occured in-between our weather recording intervals... More about our weather records

Advertising

Fürth weather history for previous 24 hours

 ConditionsComfort  
Time TempWeatherWind HumidityBarometerVisibility
5:20 PM
Tue, Aug 4
79 °FSunny.25 mph48%29.98 "Hg10 mi
4:50 PM81 °FSunny.26 mph42%29.95 "Hg10 mi
4:20 PM86 °FSunny.25 mph38%29.95 "Hg10 mi
3:50 PM90 °FPassing clouds.10 mph29%29.92 "HgN/A
3:20 PM88 °FSunny.17 mph31%29.92 "Hg10 mi
2:50 PM88 °FPassing clouds.9 mph31%29.92 "HgN/A
2:20 PM90 °FPassing clouds.10 mph27%29.92 "HgN/A
1:50 PM88 °FPassing clouds.9 mph29%29.92 "HgN/A
1:20 PM90 °FPassing clouds.6 mph29%29.92 "HgN/A
12:50 PM86 °FPassing clouds.7 mph33%29.95 "HgN/A
12:20 PM86 °FSunny.8 mph31%29.95 "Hg10 mi
11:50 AM84 °FPassing clouds.6 mph35%29.95 "HgN/A
11:20 AM82 °FPassing clouds.8 mph37%29.95 "HgN/A
10:50 AM82 °FPassing clouds.6 mph40%29.95 "HgN/A
10:20 AM81 °FPassing clouds.8 mph42%29.95 "HgN/A
9:50 AM79 °FPassing clouds.8 mph48%29.95 "HgN/A
9:20 AM75 °FPassing clouds.7 mph54%29.95 "HgN/A
8:50 AM73 °FPassing clouds.5 mph61%29.98 "HgN/A
8:20 AM70 °FPassing clouds.3 mph64%29.98 "HgN/A
7:50 AM68 °FSunny.2 mph69%29.98 "Hg10 mi
7:20 AM64 °FPassing clouds.3 mph78%29.98 "HgN/A
6:50 AM61 °FSunny.6 mph83%29.98 "Hg10 mi
6:20 AM61 °FClear.2 mph83%29.98 "Hg10 mi
5:50 AM61 °FClear.6 mph83%29.98 "Hg10 mi
5:20 AM61 °FClear.7 mph83%29.98 "Hg10 mi
4:50 AM63 °FClear.7 mph77%29.98 "Hg10 mi
4:20 AM64 °FClear.6 mph78%30.01 "Hg10 mi
3:50 AM64 °FClear.3 mph73%30.01 "Hg10 mi
3:20 AM64 °FClear.6 mph73%30.01 "Hg10 mi
2:50 AM66 °FClear.2 mph73%30.01 "Hg10 mi
2:20 AM64 °FClear.5 mph73%30.01 "Hg10 mi
1:50 AM66 °FPassing clouds.3 mph68%30.01 "HgN/A
1:20 AM68 °FClear.3 mph69%30.01 "Hg10 mi
12:50 AM70 °FClear.3 mph64%30.01 "Hg10 mi
12:20 AM70 °FClear.3 mph64%30.04 "Hg10 mi
11:50 PM
Mon, Aug 3
68 °FClear.7 mph69%30.04 "Hg10 mi
11:20 PM72 °FPassing clouds.5 mph61%30.04 "HgN/A
10:20 PM75 °FClear.6 mph50%30.04 "Hg10 mi
9:50 PM75 °FSunny.5 mph50%30.04 "Hg10 mi
9:20 PM77 °FSunny.5 mph47%30.04 "Hg10 mi
8:50 PM81 °FSunny.6 mph39%30.01 "Hg10 mi
8:20 PM82 °FSunny.7 mph37%30.01 "Hg10 mi
7:50 PM84 °FSunny.7 mph33%30.01 "Hg10 mi
7:20 PM86 °FSunny.7 mph31%30.01 "Hg10 mi
6:50 PM86 °FPassing clouds.7 mph31%30.01 "HgN/A
6:20 PM88 °FPassing clouds.6 mph27%30.01 "HgN/A
Weather by CustomWeather, © 2015

See weather overviewHow to use our weather pages